Météo par heure à Jurgucie

Ce jour, 20 Juin, Dimanche

Heure Température Précipitation Vent Pression Humidité
00:00 +20°C° 0 mm 3 m/s 754 mmHg 89%
01:00 +20°C° 0 mm 3 m/s 754 mmHg 90%
02:00 +19°C° 0 mm 3 m/s 754 mmHg 90%
03:00 +19°C° 0 mm 3 m/s 754 mmHg 90%
04:00 +19°C° 0 mm 3 m/s 754 mmHg 89%
05:00 +20°C° 0 mm 3 m/s 753 mmHg 84%
06:00 +22°C° 0 mm 4 m/s 753 mmHg 79%
07:00 +25°C° 0 mm 4 m/s 753 mmHg 74%
08:00 +26°C° 0 mm 4 m/s 754 mmHg 69%
09:00 +27°C° 0 mm 4 m/s 754 mmHg 64%
10:00 +28°C° 0 mm 4 m/s 754 mmHg 59%
11:00 +29°C° 0 mm 4 m/s 754 mmHg 57%
12:00 +29°C° 0 mm 4 m/s 753 mmHg 56%
13:00 +30°C° 0 mm 4 m/s 753 mmHg 55%
14:00 +30°C° 0 mm 4 m/s 752 mmHg 56%
15:00 +30°C° 0 mm 4 m/s 752 mmHg 58%
16:00 +30°C° 0 mm 4 m/s 752 mmHg 60%
17:00 +29°C° 0.2 mm 3 m/s 752 mmHg 66%
18:00 +27°C° 0.2 mm 3 m/s 751 mmHg 73%
19:00 +25°C° 0.2 mm 3 m/s 751 mmHg 79%
20:00 +24°C° 0 mm 3 m/s 751 mmHg 82%
21:00 +22°C° 0 mm 3 m/s 751 mmHg 85%
22:00 +21°C° 0 mm 3 m/s 752 mmHg 89%
23:00 +21°C° 0 mm 3 m/s 751 mmHg 90%

Demain, 21 Juin, Lundi

Heure Température Précipitation Vent Pression Humidité
00:00 +20°C° 0 mm 3 m/s 751 mmHg 92%
01:00 +20°C° 0 mm 2 m/s 751 mmHg 93%
02:00 +20°C° 0 mm 3 m/s 751 mmHg 93%
03:00 +20°C° 0 mm 3 m/s 751 mmHg 93%
04:00 +20°C° 0 mm 3 m/s 751 mmHg 93%
05:00 +21°C° 0 mm 3 m/s 751 mmHg 87%
06:00 +23°C° 0 mm 4 m/s 751 mmHg 80%
07:00 +25°C° 0 mm 4 m/s 751 mmHg 74%
08:00 +26°C° 0 mm 5 m/s 751 mmHg 68%
09:00 +27°C° 0 mm 5 m/s 751 mmHg 63%
10:00 +29°C° 0 mm 5 m/s 751 mmHg 57%
11:00 +29°C° 0 mm 5 m/s 750 mmHg 55%
12:00 +30°C° 0 mm 5 m/s 750 mmHg 53%
13:00 +30°C° 0 mm 5 m/s 750 mmHg 51%
14:00 +30°C° 0 mm 5 m/s 750 mmHg 54%
15:00 +29°C° 0 mm 4 m/s 749 mmHg 57%
16:00 +29°C° 0 mm 4 m/s 749 mmHg 60%
17:00 +28°C° 0.1 mm 4 m/s 749 mmHg 66%
18:00 +26°C° 0.1 mm 4 m/s 749 mmHg 72%
19:00 +25°C° 0.1 mm 3 m/s 749 mmHg 79%
20:00 +24°C° 0 mm 3 m/s 749 mmHg 82%
21:00 +22°C° 0 mm 3 m/s 749 mmHg 85%
22:00 +21°C° 0 mm 3 m/s 749 mmHg 89%
23:00 +20°C° 0 mm 3 m/s 749 mmHg 90%

Après-demain, 22 Juin, Mardi

Heure Température Précipitation Vent Pression Humidité
00:00 +20°C° 0 mm 3 m/s 749 mmHg 92%
01:00 +20°C° 0 mm 3 m/s 749 mmHg 93%
02:00 +20°C° 0.1 mm 3 m/s 749 mmHg 93%
03:00 +19°C° 0.1 mm 3 m/s 749 mmHg 93%
04:00 +19°C° 0.1 mm 3 m/s 749 mmHg 93%
05:00 +21°C° 0 mm 3 m/s 749 mmHg 88%
06:00 +24°C° 0 mm 3 m/s 749 mmHg 83%
07:00 +25°C° 0 mm 4 m/s 749 mmHg 78%
08:00 +26°C° 0.9 mm 4 m/s 749 mmHg 76%
09:00 +27°C° 0.9 mm 4 m/s 749 mmHg 75%
10:00 +28°C° 0.9 mm 3 m/s 750 mmHg 74%
11:00 +27°C° 1 mm 3 m/s 750 mmHg 75%
12:00 +27°C° 1 mm 2 m/s 750 mmHg 77%
13:00 +27°C° 1 mm 2 m/s 750 mmHg 78%
14:00 +26°C° 1.1 mm 2 m/s 750 mmHg 83%
15:00 +24°C° 1.1 mm 2 m/s 751 mmHg 89%
16:00 +22°C° 1.1 mm 3 m/s 751 mmHg 94%
17:00 +21°C° 0.4 mm 3 m/s 751 mmHg 95%
18:00 +20°C° 0.4 mm 2 m/s 751 mmHg 95%
19:00 +20°C° 0.4 mm 2 m/s 752 mmHg 96%
20:00 +19°C° 0.1 mm 2 m/s 752 mmHg 96%
21:00 +18°C° 0.1 mm 2 m/s 752 mmHg 96%
22:00 +17°C° 0.1 mm 2 m/s 752 mmHg 97%
23:00 +17°C° 0 mm 2 m/s 752 mmHg 96%

23 Juin, Mercredi

Heure Température Précipitation Vent Pression Humidité
00:00 +16°C° 0 mm 2 m/s 752 mmHg 96%
01:00 +15°C° 0 mm 2 m/s 752 mmHg 95%
02:00 +15°C° 0 mm 2 m/s 752 mmHg 95%
03:00 +15°C° 0 mm 2 m/s 753 mmHg 94%
04:00 +15°C° 0 mm 2 m/s 753 mmHg 94%
05:00 +17°C° 0 mm 2 m/s 753 mmHg 89%
06:00 +19°C° 0 mm 1 m/s 753 mmHg 85%
07:00 +21°C° 0 mm 1 m/s 753 mmHg 81%
08:00 +23°C° 0 mm 1 m/s 753 mmHg 77%
09:00 +25°C° 0 mm 2 m/s 753 mmHg 72%
10:00 +27°C° 0 mm 2 m/s 753 mmHg 68%
11:00 +28°C° 0.5 mm 1 m/s 753 mmHg 68%
12:00 +28°C° 0.5 mm 1 m/s 753 mmHg 68%
13:00 +29°C° 0.5 mm 1 m/s 753 mmHg 68%
14:00 +29°C° 0.3 mm 1 m/s 752 mmHg 68%
15:00 +29°C° 0.3 mm 2 m/s 752 mmHg 68%
16:00 +30°C° 0.3 mm 2 m/s 752 mmHg 68%
17:00 +28°C° 0.5 mm 2 m/s 752 mmHg 73%
18:00 +27°C° 0.5 mm 2 m/s 752 mmHg 78%
19:00 +26°C° 0.5 mm 2 m/s 752 mmHg 84%
20:00 +25°C° 1 mm 2 m/s 752 mmHg 86%
21:00 +24°C° 1 mm 1 m/s 752 mmHg 89%
22:00 +22°C° 1 mm 1 m/s 753 mmHg 92%
23:00 +21°C° 0.2 mm 2 m/s 753 mmHg 92%

24 Juin, Jeudi

Heure Température Précipitation Vent Pression Humidité
00:00 +20°C° 0.2 mm 2 m/s 753 mmHg 92%
01:00 +20°C° 0.2 mm 2 m/s 753 mmHg 92%
02:00 +20°C° 0 mm 2 m/s 753 mmHg 94%
03:00 +19°C° 0 mm 2 m/s 753 mmHg 95%
04:00 +19°C° 0 mm 2 m/s 753 mmHg 96%
05:00 +20°C° 0 mm 3 m/s 753 mmHg 94%
06:00 +21°C° 0 mm 3 m/s 753 mmHg 92%
07:00 +22°C° 0 mm 4 m/s 753 mmHg 89%
08:00 +24°C° 0 mm 3 m/s 754 mmHg 83%
09:00 +25°C° 0 mm 3 m/s 754 mmHg 77%
10:00 +26°C° 0 mm 3 m/s 754 mmHg 71%
11:00 +27°C° 0 mm 3 m/s 754 mmHg 67%
12:00 +27°C° 0 mm 3 m/s 754 mmHg 64%
13:00 +28°C° 0 mm 3 m/s 754 mmHg 60%
14:00 +27°C° 0 mm 3 m/s 754 mmHg 61%
15:00 +27°C° 0 mm 3 m/s 754 mmHg 63%
16:00 +27°C° 0 mm 3 m/s 754 mmHg 64%
17:00 +26°C° 0 mm 3 m/s 754 mmHg 71%
18:00 +24°C° 0 mm 3 m/s 754 mmHg 78%
19:00 +22°C° 0 mm 3 m/s 753 mmHg 85%
20:00 +20°C° 0 mm 3 m/s 754 mmHg 88%
21:00 +18°C° 0 mm 2 m/s 754 mmHg 92%
22:00 +17°C° 0 mm 2 m/s 754 mmHg 96%
23:00 +16°C° 0 mm 2 m/s 754 mmHg 96%

25 Juin, Vendredi

Heure Température Précipitation Vent Pression Humidité
00:00 +16°C° 0 mm 2 m/s 754 mmHg 96%
01:00 +15°C° 0 mm 2 m/s 753 mmHg 96%
02:00 +15°C° 0.1 mm 2 m/s 753 mmHg 95%
03:00 +15°C° 0.1 mm 1 m/s 753 mmHg 95%
04:00 +15°C° 0.1 mm 1 m/s 753 mmHg 94%
05:00 +16°C° 0.3 mm 2 m/s 753 mmHg 93%
06:00 +17°C° 0.3 mm 2 m/s 752 mmHg 92%
07:00 +18°C° 0.3 mm 2 m/s 752 mmHg 91%
08:00 +19°C° 0 mm 2 m/s 752 mmHg 86%
09:00 +21°C° 0 mm 2 m/s 752 mmHg 81%
10:00 +23°C° 0 mm 2 m/s 752 mmHg 76%
11:00 +24°C° 0.1 mm 2 m/s 752 mmHg 74%
12:00 +25°C° 0.1 mm 2 m/s 752 mmHg 73%
13:00 +25°C° 0.1 mm 2 m/s 752 mmHg 72%
14:00 +24°C° 0.1 mm 3 m/s 752 mmHg 74%
15:00 +23°C° 0.1 mm 4 m/s 752 mmHg 77%
16:00 +22°C° 0.1 mm 5 m/s 752 mmHg 80%
17:00 +20°C° 0.1 mm 5 m/s 752 mmHg 81%
18:00 +17°C° 0.1 mm 5 m/s 752 mmHg 83%
19:00 +16°C° 0.1 mm 5 m/s 753 mmHg 85%
20:00 +15°C° 0 mm 5 m/s 753 mmHg 85%
21:00 +15°C° 0 mm 4 m/s 753 mmHg 85%
22:00 +14°C° 0 mm 4 m/s 754 mmHg 86%
23:00 +13°C° 0 mm 4 m/s 754 mmHg 90%
Voir plus

Nous avons besoin de votre consentement

Meteoprog et ses fournisseurs de services peuvent stocker et accéder à des données personnelles telles que des cookies, des identifiants d'appareils ou d'autres technologies similaires sur votre appareil et traiter ces données pour personnaliser le contenu et les publicités, ainsi que pour fournir des fonctionnalités de médias sociaux et analyser le trafic.

  • Stocker et/ou accéder à des informations sur votre appareil

    Des cookies, des identifiants d'appareils ou d'autres informations peuvent être stockés ou accessibles sur votre appareil aux fins indiquées ci-dessus.

  • Annonces et contenus personnalisés, mesure des annonces et des contenus, connaissance de l'audience et développement de produits

    Les annonces et le contenu peuvent être personnalisés en fonction d'un profil. D'autres données peuvent être ajoutées pour mieux personnaliser les annonces et le contenu. Les performances des publicités et du contenu peuvent être mesurées. Il est possible d'obtenir des informations sur le public qui a vu les publicités et le contenu. Ces données peuvent être utilisées pour développer ou améliorer l'expérience de l'utilisateur, les systèmes et les logiciels.

En cliquant sur "J'accepte", vous autorisez l'utilisation de cookies, des identifiants d'appareils, des balises web ou d'autres technologies similaires. Vos paramètres peuvent être modifiés dans le navigateur de votre appareil.

Dans certains cas, des intérêts légitimes peuvent être invoqués plutôt qu'un consentement. Vous pouvez en savoir plus à ce sujet dans notre Politique de confidentialité et de cookies.